Location: *
(58.7167°N, 26.1833°E)
Time: 22:57:51
(UTC+00:00)

Cosmos 2297 Rocket - Pass Details

Date: 25 August 2019
Orbit: 840 x 843 km, 71.0° (Epoch: 19 September)

Event Time Altitude Azimuth Distance (km) Brightness Sun altitude
Exits shadow 23:40:50 30° 175° (S) 1,479 3.0 -18.7°
Maximum altitude 23:43:21 51° 116° (ESE) 1,057 2.6 -18.5°
Drops below altitude 10° 23:48:50 10° 43° (NE) 2,476 5.7 -18.3°
Sets 23:51:20 0° 38° (NE) 3,415 6.9 -18.1°
